Погода в Джикимде

Погода в Джикимде : погода сейчас, прогноз погоды и архив. Всё, что Вы хотите узнать о погоде в Джикимде!

Поиск расширенной информации на нашем сайте:

Другие новости

Новости СМИ2

Главная страница сайта

Новости сайта

02.10.2013

Напоминаем, что на нашем новом сайте вы можете получить высокодетализированные прогнозы погоды по пунктам России, СНГ и мира (включающие важные для авиации метеовеличины, такие как направление и скорость ветра, видимость, явления погоды, количество и форма облачности, нижняя и верхняя граница облачности), а также ознакомиться с разнообразными материалами по авиационной метеорологии и подборкой полезных ссылок на эту тему.

Сайт Метеоцентр.Азия посвящён разработке технологий оптимизации авиаметеорологического обслуживания, включая проектирование и перспективное создание нескольких автоматизированных авиаметеорологических систем:
- система выпуска высокодетальных прогностических карт явлений погоды для нижнего воздушного пространства по России и ближнему зарубежью;
- система верификации прогнозов TAF (выпускаемых синоптиками официальных АМСГ РФ и ближнего зарубежья) и AUTOTAF (выпускаемых сайтом Метеоцентр.Азия) - выявление ошибок, онлайн-сопоставление с фактической погодой METAR, автоматическое внесение коррективов в прогнозы при резком отклонении фактической погоды от прогноза, подсчёт оправдываемости прогнозов по элементам и в целом;
- система обработки, анализа и отображения авиаметеорологической информации для применения провайдерами метеорологической информации.

Рекомендуем: Check up в германии обследования check.

Погода в Джикимде - сегодня

Время (UTC), дата Ветер
(°,м/с) 
Видим.   Явления Облачность Т
(°С)
Тd
(°С)
f(%) Тe
(°С)
Pmin
(гПа)
dP
(гПа)
Po
(мм)
O2
(г/м3)
Тmin Tmax R s Состояние
почвы
00 21.02.17 070 (В) 20000 м  {снег}  10/0 средняя 
[Ac As]
-20.8 -23.3 80 -21  1021.6  1.3  748  328  -21.6    0.4  47  равномерный
сухой снег
100% 
03 21.02.17 тихо ()   20000 м    10/3 600 м верхняя 
[Cu hum|Ci fib]
-19.2 -21.8 80 -19  1022.1  0.6  749  326  -21         
06 21.02.17 тихо ()   20000 м  слаб. снег  10/0 верхняя 
[Cs]
-15.1 -17.8 80 -15  1020.6  -1  748  320           
09 21.02.17 тихо ()   20000 м  {снег}  3/0 верхняя 
[Cs]
-14.4 -16.4 85 -14  1020.8  0.2  748  320           
12 21.02.17 тихо ()   20000 м  {снег}  3/0 верхняя 
[Cs]
-24.4 -26.2 85 -24  1022.7  0.9  749  333    -13.8  0.4     
15 21.02.17 тихо ()   20000 м    10/0 верхняя 
[Cs]
-24.8 -26.6 85 -25  1023.4  0.7  749  334           
18 21.02.17 тихо ()   20000 м    10/0 верхняя 
[Cs]
-24.5 -26.4 84 -25  1024.2  0.8  750  334           
21 21.02.17 тихо ()   20000 м  слаб. снег  10/0 верхняя 
[Cs]
-26 -27.8 85 -26  1023.9  -0.5  749  336           
00 22.02.17 тихо ()   20000 м  слаб. снег  10/0 средняя 
[Ac As]
-25.5 -27.3 85 -26  1023.6  -0.1  749  335  -26    0.3  47  равномерный
сухой снег
100% 
03 22.02.17 тихо ()   20000 м  {снег}  10/3 600 м верхняя 
[Cu hum|Cs]
-21.7 -24.2 80 -22  1022.4  -0.8  749  329           
06 22.02.17 тихо ()   20000 м  {снег}  10/4 600 м верхняя 
[Cu hum|Cs]
-17.1 -20.5 75 -17  1019.7  -2.2  747  323           
09 22.02.17 тихо ()   20000 м    10/5 600 м верхняя 
[Cu hum|Cs]
-15.5 -18.9 75 -16  1019  -0.6  747  320           
12 22.02.17 тихо ()   20000 м    10/0 верхняя 
[Cs]
-20.6 -22.5 85 -21  1018.7  -0.8  746  327    -15.2  0.0     
15 22.02.17 тихо ()   20000 м  слаб. снег  10/0 верхняя 
[Cs]
-21.1 -23 85 -21  1017  -1.3  745  327           
18 22.02.17 тихо ()   20000 м  слаб. снег  10/0 верхняя 
[Cs]
-21.8 -23.6 85 -22  1016.1  -1.2  744  328           
21 22.02.17 тихо ()   20000 м  слаб. снег  10/0 верхняя 
[Cs]
-22.1 -24 85 -22  1015.7  -0.6  744  328           
00 23.02.17 тихо ()   20000 м  слаб. снег  10/0 верхняя 
[Cs]
-20.3 -22.2 85 -20  1015.1  -0.4  743  325  -22.1    47  равномерный
сухой снег
100% 
03 23.02.17 тихо ()   20000 м  слаб. снег  10/0 верхняя 
[Cs]
-17.6 -20.2 80 -18  1014.4  -0.3  743  322           
06 23.02.17 тихо ()   0500 м  снег  10/0 средняя 
[As op]
-13.6 -15.6 85 -14  1013.4  -0.7  743  316           
09 23.02.17 тихо ()   20000 м  {снег}  10/0 средняя, верхняя 
[Ac trans|Cs]
-13.5 -16.2 80 -14  1014.3  0.9  743  316           
12 23.02.17 тихо ()   20000 м  {снег}  ясно 
-21.4 -23.2 85 -21  1016.2  1.2  744  327    -13  0.7     
15 23.02.17 тихо ()   20000 м    ясно 
-25.6 -27.5 84 -26  1019.3  2.4  746  334           
18 23.02.17 тихо ()   20000 м    ясно 
-26.8 -28.7 84 -27  1021.1  1.8  747  336           
21 23.02.17 тихо ()   20000 м    ясно 
-35.5 -37.1 85 -36  1023.6  0.7  748  348           
00 24.02.17 тихо ()   20000 м    ясно 
-38.1 -39.7 85 -38  1024.9  1.7  749  353  -38.1      47  равномерный
сухой снег
100% 
Время (UTC), дата Ветер
(°,м/с) 
Видим.   Явления Облачность Т
(°С)
Тd
(°С)
f(%) Тe
(°С)
Pmin
(гПа)
dP
(гПа)
Po
(мм)
O2
(г/м3)
Тmin Tmax R s Состояние
почвы

Для получения пояснительной информации подведите курсор к названию столбца.

ПОГОДА в Джикимде - архив

Всё, что Вы хотите узнать о погоде в Джикимде - удобно и подробно!

Выберите нужную дату (начиная с 1 января 2015* года) и нажмите кнопку "Найти".
Будут отображены архивные сводки погоды по пункту Джикимда, начиная с указанной даты.


Отображать данные в формате CSV (для использования в таблицах Excel)


Внимание! Наш архив погоды предназначен исключительно для личного некоммерческого использования в познавательных целях. Если Вам необходимы официальные справки о состоянии погоды (для производственных, юридических, коммерческих и т.п. целей), обращайтесь в органы Росгидромета.

*Примечание: данная дата относится к архиву по метеостанциям СССР (Россия, СНГ, Балтия).
Архив по метеостанциям Зарубежной Европы и Азии (кроме Китая) хранится 10 дней, по другим регионам земного шара (Китай, Африка, Америка, Австралия, Океания) - 1 день.

Джикимда - район местоположения метеостанции


Название, широта, долгота, высота метеостанции:
Джикимда 59°ш. 121.8°д. 170 м над ур. моря [Российская Федерация]

Дополнительная информация

В oтличие oт бoльшинства пoгoдных сайтoв мы публикуем пoдрoбную метеoинфoрмацию в детальнoм прoфессиoнальнoм фoрмате.

Характеристики температуры и влажнoсти вoздуха измеряются на высoте 2 м в тени вдали oт зданий и деревьев.
Скoрoсть ветра измеряется на высoте 10 м (на урoвне рoста челoвека скoрoсть ветра ниже в 1.5-2 раза). Если метеoстанция нахoдится в гoрoде или в лесу, тo скoрoсть ветра занижена на 2-4 м/с пo сравнению с oткрытым местoм. Скoрoсть ветра над акватoриями крупных рек и oзёр, а также на вершинах хoлмoв на 2-5 м/с выше, чем в oбычных услoвиях.
Атмoсфернoе давление в разных тoчках местнoсти мoжет значительнo oтличаться oт давления на метеoстанции, в зависимoсти oт услoвий рельефа (при пoдъёме на 10 м давление пoнижается примернo на 1 мм рт.ст.).